Location: Big Meadow
(36.7100°N, 118.8650°W)
Time: 16:44:23
(UTC-07:00)

Daily predictions for brighter satellites

Satellite Brightness Start Highest point End
(mag) Time Altitude Azimuth Time Altitude Azimuth Time Altitude Azimuth
Atlas Centaur 2 3.0 20:27:11 10° WSW 20:33:24 51° S 20:41:01 10° ESE
H-2A R/B 3.1 20:31:43 10° SE 20:35:25 29° ENE 20:39:13 10° N
Cosmos 2228 3.1 20:32:17 10° N 20:36:41 70° E 20:41:03 10° SSE
Cosmos 1943 3.8 20:32:23 10° S 20:37:30 36° ESE 20:42:39 10° NE
Abrixas rocket 4.5 20:38:25 10° W 20:40:54 19° SW 20:43:23 10° S
Tsikada Rocket 4.3 20:35:24 10° SSE 20:41:35 53° E 20:47:45 10° NNE
Cosmos 1626 Rocket 3.6 20:37:30 10° S 20:41:52 63° E 20:46:13 10° NNE
YAOGAN 11 4.1 20:38:32 10° SSE 20:42:49 66° ENE 20:47:06 10° N
Meteor 2-4 Rocket 4.5 20:38:12 10° SSW 20:44:00 62° W 20:49:54 10° N
H-2A R/B 2.8 20:40:50 10° SSE 20:44:47 90° SSW 20:48:46 10° NNW
deb Chang Zheng 4 3.9 20:40:47 10° NNE 20:44:59 45° E 20:49:08 10° S
Cosmos 1461 3.8 20:48:08 10° NW 20:52:10 45° WSW 20:56:01 10° S
Cosmos 1939 Rocket 3.8 20:48:54 10° SE 20:52:37 33° ENE 20:56:20 10° N
Cosmos 1464 Rocket 4.2 20:48:39 10° N 20:54:48 75° W 21:00:58 10° S
Milstar 3 Cent rocket 4.2 20:48:31 10° W 20:56:04 25° SW 21:00:55 10° SSE
Cosmos 1346 Rocket 4.3 20:55:11 11° SE 20:57:43 19° E 21:00:33 10° NE
Cosmos 1190 Rocket 4.4 20:56:04 10° S 21:01:03 44° ESE 21:06:05 10° NNE
CZ-3C R/B 3.9 20:56:30 10° SW 21:01:34 14° SSW 21:04:16 10° S
SPOT 5 3.6 21:00:16 13° SE 21:03:34 29° ENE 21:07:19 10° N
ATLAS 3B R/B 2.9 20:59:28 10° SSW 21:07:05 67° ESE 21:14:35 10° NE
Nimbus 7 Rocket 4.5 21:01:35 10° NNE 21:07:27 58° ESE 21:13:12 10° S
Cosmos 1666 4.2 21:09:09 10° NNW 21:12:47 37° W 21:16:22 10° SSW
Cosmos 2034 Rocket 4.4 21:10:34 10° NNW 21:16:52 68° W 21:23:05 10° S
GRACE-1 4.0 21:16:34 10° N 21:19:26 80° W 21:21:59 12° S
GRACE-2 4.0 21:17:01 10° N 21:19:52 79° W 21:22:24 12° S
YAOGAN 6 4.3 21:18:24 16° ESE 21:19:54 21° ENE 21:22:44 10° NNE
Cosmos 2369 Rocket 2.4 21:16:51 10° NNW 21:22:26 57° ENE 21:26:23 19° SE
ERS-1 Rocket 3.3 21:17:57 10° S 21:22:55 67° WSW 21:27:56 10° NNW
DEBRIS 2.3 21:23:22 10° NW 21:27:43 65° SW 21:28:40 31° SSE
COSMOS 2455 4.1 21:22:21 10° SW 21:28:04 45° WNW 21:33:49 10° NNE
Cosmos 1900 4.4 21:26:06 10° SSW 21:31:14 85° ESE 21:36:24 10° NNE
CZ-2C R/B 3.0 21:31:16 10° SW 21:32:58 18° W 21:34:40 10° NW
Cosmos 1758 Rocket 3.9 21:34:20 23° SSE 21:36:42 45° E 21:40:52 10° NNE
Envisat 3.0 21:37:30 18° SSE 21:41:23 86° WSW 21:46:30 10° NNW
SL-27 R/B 3.2 21:44:18 30° E 21:44:18 30° E 21:46:59 10° NE
GEOS 3 Rocket 3.9 21:40:33 20° SSE 21:44:08 64° WSW 21:49:21 10° NW
Cosmos 407 Rocket 3.5 21:39:26 10° SSW 21:44:43 90° NNW 21:49:58 10° NNE
CZ-4C R/B 4.2 21:48:42 10° E 21:48:42 10° E 21:48:45 10° E
Cosmos 1825 Rocket 3.9 21:47:45 10° SSW 21:52:09 64° W 21:56:34 10° N
USA 238 DEB 3.8 21:48:00 10° SSW 21:54:56 59° ESE 22:01:52 10° NE
USA 238 3.8 21:48:07 10° SSW 21:55:02 58° ESE 22:01:57 10° NE
MetOp-A 4.1 21:54:18 26° SSE 21:57:27 88° ENE 22:02:49 10° NNW
Cosmos 2263 4.1 21:52:37 10° NNW 21:58:16 82° ENE 22:01:01 32° SSE
Lacrosse 4 Rocket 3.0 21:56:36 10° SW 22:00:18 34° WNW 22:04:04 10° N
COSMOS 2406 3.4 22:03:21 30° SSE 22:05:55 51° ESE 22:11:27 10° NNE
Cosmos 1954 Rocket 3.9 22:02:05 17° SSW 22:06:14 81° ESE 22:11:33 10° NNE
Cosmos 2084 4.2 22:05:15 10° NNW 22:09:13 41° NE 22:10:11 35° E
H-2A R/B 4.2 22:08:11 10° SW 22:11:25 21° W 22:14:45 10° NW
Cosmos 1943 Rocket 2.4 22:06:01 10° NNW 22:11:30 56° ENE 22:13:25 38° ESE
CZ-4C R/B 3.9 22:11:59 41° E 22:12:26 43° ENE 22:16:14 10° N
SeaSat 1 2.4 22:12:25 41° SSE 22:14:12 88° WSW 22:19:10 10° NNW
Landsat 7 4.1 22:20:31 44° ESE 22:21:21 49° ENE 22:25:56 10° N
Atlas Centaur 2 3.2 22:15:49 10° W 22:22:45 48° S 22:25:27 36° SE
PSLV R/B 3.8 22:23:22 10° WNW 22:26:52 56° NNE 22:26:59 56° NNE
Cosmos 1953 2.5 22:24:55 10° N 22:28:39 57° ENE 22:28:39 57° ENE
NOSS 3-2 (C) 4.4 22:30:29 28° E 22:30:29 28° E 22:34:58 10° NE
Cosmos 1741 Rocket 4.0 22:30:05 52° SSE 22:31:08 64° ESE 22:36:24 10° NNE
CZ-4 R/B 4.3 22:28:57 10° N 22:33:55 63° WNW 22:36:37 27° SSW
Geosat 3.9 22:30:33 10° NNE 22:35:33 62° ESE 22:36:06 58° SE
Cosmos 1842 3.8 22:36:20 47° WSW 22:37:00 54° W 22:40:51 10° N
Terra 2.1 22:36:48 48° E 22:37:10 49° ENE 22:41:46 10° N
Cosmos 1092 Rocket 4.3 22:36:22 43° ESE 22:37:31 48° E 22:43:30 10° NNE
Spot 4 4.4 22:38:04 40° E 22:38:21 40° ENE 22:42:49 10° N
Cosmos-2242 3.0 22:37:04 10° N 22:41:28 78° W 22:41:48 72° SW
ARGOS 3.4 22:41:02 42° SSW 22:42:44 63° WSW 22:48:08 10° NNW
Nadezhda 4 Rocket 3.9 22:42:56 47° SSE 22:44:52 77° E 22:51:12 10° N
Cosmos 1850 Rocket 3.9 22:45:13 52° SSW 22:46:33 87° WNW 22:51:47 10° NNE
Cosmos 1140 Rocket 3.8 22:46:24 31° SW 22:48:50 63° WNW 22:54:03 10° N
Cosmos 1570 Rocket 3.9 22:49:13 10° NNW 22:54:37 87° ENE 22:55:11 72° SSE
H-2A R/B 1.8 22:54:58 76° SE 22:55:21 84° ENE 23:00:27 10° NNW
SL-8 R/B 4.3 22:51:34 10° NW 22:56:16 50° NNE 22:57:00 46° ENE
Cosmos 2369 Rocket 4.3 23:02:25 10° WNW 23:05:53 17° W 23:08:12 13° SW
Cosmos 1607 4.4 23:00:45 11° SW 23:06:40 58° WNW 23:12:49 10° NNE
Cosmos 614 Rocket 4.2 23:07:38 55° WSW 23:08:34 67° WNW 23:13:46 10° NNE
Cosmos 1340 4.1 23:10:35 33° NNE 23:10:35 33° NNE 23:12:49 10° NNE
NOSS 3-2 (A) 3.3 23:10:04 65° S 23:10:59 78° ESE 23:17:31 10° NE
Cosmos 1544 4.4 23:08:32 10° N 23:10:59 39° N 23:10:59 39° N
USA 234 3.1 23:11:49 58° SE 23:13:17 89° SW 23:19:53 10° NW
CARTOSAT-1 4.2 23:16:15 51° WNW 23:16:15 51° WNW 23:20:01 10° NNW
Cosmos 1655 Rocket 4.2 23:18:06 53° E 23:18:13 53° E 23:24:17 10° NNE
Timation 2 Rocket 4.5 23:22:07 47° E 23:22:07 47° E 23:28:18 10° NE
Okean 3 Rocket 4.2 23:22:49 54° N 23:22:49 54° N 23:26:16 10° N
Cosmos 2026 Rocket 4.0 23:24:08 61° E 23:24:08 61° E 23:30:06 10° NNE
Cosmos 2195 Rocket 4.3 23:25:08 71° ESE 23:25:27 73° E 23:31:42 10° N
Meteor 2-5 Rocket 3.6 23:25:22 79° SSW 23:25:44 87° W 23:31:32 10° N
Cosmos 1470 4.2 23:27:46 10° NNW 23:30:11 36° NNW 23:30:11 36° NNW
CZ-4C R/B 2.2 23:33:48 71° W 23:34:06 74° WNW 23:39:58 10° NNE
Meteor 1-16 Rocket 4.3 23:31:27 10° N 23:36:58 69° ENE 23:36:58 69° ENE
Cosmos 1627 Rocket 4.3 23:37:34 83° SSW 23:37:51 89° W 23:44:01 10° N
Meteor 2-1 Rocket 4.5 23:33:30 10° N 23:39:06 61° ENE 23:39:06 61° ENE
Cosmos 2278 4.2 23:37:55 10° N 23:43:20 48° ENE 23:43:20 48° ENE
CZ-4B R/B 4.3 23:45:06 14° NE 23:45:06 14° NE 23:46:04 10° NNE
Cosmos 2344 3.8 23:45:49 50° ESE 23:45:49 50° ESE 23:53:40 10° NE
ALOS 2 4.4 23:46:57 24° NE 23:46:57 24° NE 23:49:32 10° NNE
Cosmos 1943 Rocket 4.1 23:51:15 10° WNW 23:54:42 17° W 23:54:56 17° WSW
